User: anonymous   Login
Location: Oshawa
(43.9000°N, 78.8670°W)
Time: 10:29:23
(UTC-04:00)
Language:

Altair - Orbit

View from above orbital plane
View from above orbital plane
View from above satellite
View from above satellite

Ground track
Ground track

The orbit data is extracted from the following two-line orbital elements,

1 00050U 60009B   15148.92755336 -.00000097  00000-0 -11831-3 0  9994
2 00050 047.2317 092.1813 0113654 223.0300 136.1558 12.20092252445226
Epoch (UTC): 28 May 2015 22:15:40
Eccentricity: 0.0113654
inclination: 47.2317°
perigee height: 1501 km
apogee height: 1683 km
right ascension of ascending node: 92.1813°
argument of perigee: 223.0300°
revolutions per day: 12.20092252
mean anomaly at epoch: 136.1558°
orbit number at epoch: 44522

The dashed part of the orbit path shows where the satellite is in the earth's shadow,  

DLR